Skip Page Navigation
NASA JPL Caltech
NASA Logo - Jet Propulsion Laboratory + View the NASA Portal
+ Center for Near-Earth Object Studies
JPL Home Earth Solar System Stars & Galaxies Technology
JPL Solar System Dynamics
BODIES ORBITS EPHEMERIDES TOOLS PHYSICAL DATA DISCOVERY FAQ SITE MAP
IMPORTANT: The SSD Announcement email list is now available. Major changes are coming in the near future, including possible hostname and/or URL changes. To be notified of such changes, subscribe to this email list.

Please visit this page for more details.


JPL Small-Body Database Browser
Search: [ help ]  
268063 (2004 RP50)
Classification: Main-belt Asteroid          SPK-ID: 2268063
Ephemeris | Orbit Diagram | Orbital Elements | Mission Design | Physical Parameters | Discovery Circumstances | Close-Approach Data ]

[ show orbit diagram ]
Orbital Elements at Epoch 2458600.5 (2019-Apr-27.0) TDB
Reference: JPL 16 (heliocentric ecliptic J2000)
 Element Value Uncertainty (1-sigma)   Units 
e .2019739778921326 4.2096e-08  
a 2.635177460801399 1.7021e-08 au
q 2.102940186591651 1.094e-07 au
i 2.702268556008071 5.6503e-06 deg
node 49.67059321795873 0.00010461 deg
peri 265.0841669132242 0.00010579 deg
M 173.7759371181886 1.6391e-05 deg
tp 2457846.275968266716
(2017-Apr-02.77596827)
6.8725e-05 TDB
period 1562.475541359421
4.28
1.5138e-05
4.145e-08
d
yr
n .2304036066297618 2.2323e-09 deg/d
Q 3.167414735011147 2.0459e-08 au
  Orbit Determination Parameters
   # obs. used (total)      252  
   data-arc span      6672 days (18.27 yr)  
   first obs. used      2000-10-19  
   last obs. used      2019-01-25  
   planetary ephem.      DE431  
   SB-pert. ephem.      SB431-N16  
   condition code      0  
   norm. resid. RMS      .60035  
   source      ORB  
   producer      Otto Matic  
   solution date      2019-Jul-13 18:51:31  

Additional Information
 Earth MOID = 1.09046 au 
 Jupiter MOID = 2.12837 au 
 T_jup = 3.367 
[ show covariance matrix ]

Ephemeris | Orbit Diagram | Orbital Elements | Mission Design | Physical Parameters | Discovery Circumstances | Close-Approach Data ]

Physical Parameter Table
Parameter Symbol Value Units Sigma Reference Notes
absolute magnitude H 16.6   n/a MPO423030  

268063 (2004 RP50)          Discovered 2004-Sep-08 by LINEAR at Socorro
Reference: 20110319/Numbers.arcLast Updated: 2011-03-23

[ show close-approach data ]
Alternate Designations
 2004 RP50 = 2003 KU24 
Ephemeris | Orbit Diagram | Orbital Elements | Mission Design | Physical Parameters | Discovery Circumstances | Close-Approach Data ]
ABOUT SSD CREDITS/AWARDS PRIVACY/COPYRIGHT GLOSSARY LINKS
FirstGov 2020-Jan-27 19:11 UT
(server date/time)  
NASA Home Page
Site Manager:   Ryan S. Park
Webmaster  Alan B. Chamberlin